Year,Month,Day,Hour,Minute,Value (Times are PST for windspeed in km/hr)
2015,08,29,00,00,0.10
2015,08,29,00,01,0.30
2015,08,29,00,02,0.80
2015,08,29,00,03,0.50
2015,08,29,00,04,0.80
2015,08,29,00,05,0.00
2015,08,29,00,06,1.20
2015,08,29,00,07,0.30
2015,08,29,00,08,1.50
2015,08,29,00,09,0.50
2015,08,29,00,10,1.60
2015,08,29,00,11,1.20
2015,08,29,00,12,0.00
2015,08,29,00,13,0.10
2015,08,29,00,14,1.50
2015,08,29,00,15,1.50
2015,08,29,00,16,0.30
2015,08,29,00,17,1.10
2015,08,29,00,18,1.80
2015,08,29,00,19,3.20
2015,08,29,00,20,2.30
2015,08,29,00,21,2.30
2015,08,29,00,22,0.10
2015,08,29,00,23,2.10
2015,08,29,00,24,1.60
2015,08,29,00,25,0.50
2015,08,29,00,26,0.90
2015,08,29,00,27,3.10
2015,08,29,00,28,2.20
2015,08,29,00,29,1.00
2015,08,29,00,30,1.30
2015,08,29,00,31,2.80
2015,08,29,00,32,1.40
2015,08,29,00,33,2.80
2015,08,29,00,34,2.80
2015,08,29,00,35,3.10
2015,08,29,00,36,2.60
2015,08,29,00,37,0.50
2015,08,29,00,38,0.50
2015,08,29,00,39,1.70
2015,08,29,00,40,0.50
2015,08,29,00,41,0.60
2015,08,29,00,42,0.30
2015,08,29,00,43,0.60
2015,08,29,00,44,1.10
2015,08,29,00,45,1.20
2015,08,29,00,46,1.00
2015,08,29,00,47,2.20
2015,08,29,00,48,1.20
2015,08,29,00,49,2.00
2015,08,29,00,50,1.00
2015,08,29,00,51,0.50
2015,08,29,00,52,2.70
2015,08,29,00,53,2.50
2015,08,29,00,54,2.40
2015,08,29,00,55,2.20
2015,08,29,00,56,1.30
2015,08,29,00,57,0.90
2015,08,29,00,58,1.30
2015,08,29,00,59,4.80
2015,08,29,01,00,1.60
2015,08,29,01,01,3.60
2015,08,29,01,02,3.10
2015,08,29,01,03,1.30
2015,08,29,01,04,1.30
2015,08,29,01,05,0.30
2015,08,29,01,06,1.00
2015,08,29,01,07,2.10
2015,08,29,01,08,0.60
2015,08,29,01,09,0.60
2015,08,29,01,10,1.10
2015,08,29,01,11,0.30
2015,08,29,01,12,0.30
2015,08,29,01,13,0.00
2015,08,29,01,14,0.50
2015,08,29,01,15,0.50
2015,08,29,01,16,1.70
2015,08,29,01,17,0.30
2015,08,29,01,18,0.30
2015,08,29,01,19,3.50
2015,08,29,01,20,3.80
2015,08,29,01,21,3.10
2015,08,29,01,22,2.20
2015,08,29,01,23,3.40
2015,08,29,01,24,3.60
2015,08,29,01,25,2.60
2015,08,29,01,26,1.40
2015,08,29,01,27,1.00
2015,08,29,01,28,0.50
2015,08,29,01,29,0.50
2015,08,29,01,30,0.40
2015,08,29,01,31,0.50
2015,08,29,01,32,0.30
2015,08,29,01,33,0.20
2015,08,29,01,34,0.20
2015,08,29,01,35,0.30
2015,08,29,01,36,0.60
2015,08,29,01,37,0.90
2015,08,29,01,38,2.50
2015,08,29,01,39,1.40
2015,08,29,01,40,1.50
2015,08,29,01,41,0.80
2015,08,29,01,42,0.30
2015,08,29,01,43,0.10
2015,08,29,01,44,0.70
2015,08,29,01,45,0.10
2015,08,29,01,46,1.20
2015,08,29,01,47,0.60
2015,08,29,01,48,0.00
2015,08,29,01,49,0.20
2015,08,29,01,50,1.40
2015,08,29,01,51,0.00
2015,08,29,01,52,1.70
2015,08,29,01,53,0.10
2015,08,29,01,54,0.10
2015,08,29,01,55,0.30
2015,08,29,01,56,0.00
2015,08,29,01,57,0.40
2015,08,29,01,58,0.90
2015,08,29,01,59,1.20
2015,08,29,02,00,2.30
2015,08,29,02,01,1.40
2015,08,29,02,02,1.10
2015,08,29,02,03,0.30
2015,08,29,02,04,1.20
2015,08,29,02,05,0.60
2015,08,29,02,06,0.00
2015,08,29,02,07,0.50
2015,08,29,02,08,0.80
2015,08,29,02,09,0.00
2015,08,29,02,10,0.00
2015,08,29,02,11,0.00
2015,08,29,02,12,0.00
2015,08,29,02,13,0.00
2015,08,29,02,14,1.90
2015,08,29,02,15,1.10
2015,08,29,02,16,0.20
2015,08,29,02,17,0.40
2015,08,29,02,18,0.20
2015,08,29,02,19,0.50
2015,08,29,02,20,0.30
2015,08,29,02,21,0.30
2015,08,29,02,22,1.50
2015,08,29,02,23,1.10
2015,08,29,02,24,0.20
2015,08,29,02,25,0.00
2015,08,29,02,26,0.00
2015,08,29,02,27,0.00
2015,08,29,02,28,0.20
2015,08,29,02,29,0.00
2015,08,29,02,30,0.00
2015,08,29,02,31,0.70
2015,08,29,02,32,0.10
2015,08,29,02,33,0.60
2015,08,29,02,34,0.50
2015,08,29,02,35,0.30
2015,08,29,02,36,0.50
2015,08,29,02,37,0.20
2015,08,29,02,38,1.70
2015,08,29,02,39,0.40
2015,08,29,02,40,2.20
2015,08,29,02,41,0.50
2015,08,29,02,42,1.80
2015,08,29,02,43,3.10
2015,08,29,02,44,0.40
2015,08,29,02,45,1.20
2015,08,29,02,46,1.10
2015,08,29,02,47,0.10
2015,08,29,02,48,0.10
2015,08,29,02,49,0.20
2015,08,29,02,50,1.90
2015,08,29,02,51,1.40
2015,08,29,02,52,1.40
2015,08,29,02,53,0.80
2015,08,29,02,54,2.50
2015,08,29,02,55,0.20
2015,08,29,02,56,0.00
2015,08,29,02,57,0.00
2015,08,29,02,58,0.60
2015,08,29,02,59,0.30
2015,08,29,03,00,0.20
2015,08,29,03,01,0.00
2015,08,29,03,02,0.00
2015,08,29,03,03,0.00
2015,08,29,03,04,0.00
2015,08,29,03,05,0.30
2015,08,29,03,06,0.80
2015,08,29,03,07,0.20
2015,08,29,03,08,0.10
2015,08,29,03,09,1.40
2015,08,29,03,10,0.30
2015,08,29,03,11,0.30
2015,08,29,03,12,0.60
2015,08,29,03,13,0.80
2015,08,29,03,14,0.20
2015,08,29,03,15,1.90
2015,08,29,03,16,0.10
2015,08,29,03,17,0.10
2015,08,29,03,18,0.20
2015,08,29,03,19,1.30
2015,08,29,03,20,0.00
2015,08,29,03,21,0.00
2015,08,29,03,22,0.00
2015,08,29,03,23,0.00
2015,08,29,03,24,0.00
2015,08,29,03,25,0.00
2015,08,29,03,26,0.00
2015,08,29,03,27,0.00
2015,08,29,03,28,0.00
2015,08,29,03,29,0.00
2015,08,29,03,30,0.00
2015,08,29,03,31,0.00
2015,08,29,03,32,0.00
2015,08,29,03,33,0.00
2015,08,29,03,34,0.00
2015,08,29,03,35,0.00
2015,08,29,03,36,0.10
2015,08,29,03,37,0.70
2015,08,29,03,38,1.00
2015,08,29,03,39,1.20
2015,08,29,03,40,0.50
2015,08,29,03,41,1.40
2015,08,29,03,42,0.00
2015,08,29,03,43,0.20
2015,08,29,03,44,0.00
2015,08,29,03,45,0.00
2015,08,29,03,46,2.50
2015,08,29,03,47,1.50
2015,08,29,03,48,0.90
2015,08,29,03,49,1.70
2015,08,29,03,50,0.20
2015,08,29,03,51,0.60
2015,08,29,03,52,0.30
2015,08,29,03,53,0.80
2015,08,29,03,54,0.20
2015,08,29,03,55,0.40
2015,08,29,03,56,1.40
2015,08,29,03,57,1.00
2015,08,29,03,58,1.30
2015,08,29,03,59,0.40
2015,08,29,04,00,3.20
2015,08,29,04,01,1.20
2015,08,29,04,02,0.30
2015,08,29,04,03,1.70
2015,08,29,04,04,2.70
2015,08,29,04,05,0.00
2015,08,29,04,06,0.00
2015,08,29,04,07,0.00
2015,08,29,04,08,0.70
2015,08,29,04,09,1.60
2015,08,29,04,10,3.20
2015,08,29,04,11,0.70
2015,08,29,04,12,2.50
2015,08,29,04,13,1.20
2015,08,29,04,14,1.30
2015,08,29,04,15,0.50
2015,08,29,04,16,1.20
2015,08,29,04,17,3.00
2015,08,29,04,18,4.00
2015,08,29,04,19,1.70
2015,08,29,04,20,2.60
2015,08,29,04,21,0.80
2015,08,29,04,22,0.20
2015,08,29,04,23,0.60
2015,08,29,04,24,0.60
2015,08,29,04,25,0.60
2015,08,29,04,26,0.50
2015,08,29,04,27,1.10
2015,08,29,04,28,0.90
2015,08,29,04,29,0.30
2015,08,29,04,30,2.10
2015,08,29,04,31,0.90
2015,08,29,04,32,3.60
2015,08,29,04,33,3.20
2015,08,29,04,34,3.40
2015,08,29,04,35,3.70
2015,08,29,04,36,2.10
2015,08,29,04,37,1.80
2015,08,29,04,38,2.70
2015,08,29,04,39,1.60
2015,08,29,04,40,0.70
2015,08,29,04,41,2.40
2015,08,29,04,42,4.20
2015,08,29,04,43,1.80
2015,08,29,04,44,3.10
2015,08,29,04,45,5.40
2015,08,29,04,46,5.50
2015,08,29,04,47,1.50
2015,08,29,04,48,2.50
2015,08,29,04,49,0.40
2015,08,29,04,50,1.80
2015,08,29,04,51,1.90
2015,08,29,04,52,2.00
2015,08,29,04,53,2.50
2015,08,29,04,54,0.60
2015,08,29,04,55,0.10
2015,08,29,04,56,1.60
2015,08,29,04,57,3.70
2015,08,29,04,58,3.30
2015,08,29,04,59,1.40
2015,08,29,05,00,0.60
2015,08,29,05,01,2.40
2015,08,29,05,02,0.00
2015,08,29,05,03,2.50
2015,08,29,05,04,3.00
2015,08,29,05,05,2.50
2015,08,29,05,06,1.20
2015,08,29,05,07,1.70
2015,08,29,05,08,0.60
2015,08,29,05,09,0.20
2015,08,29,05,10,2.40
2015,08,29,05,11,1.90
2015,08,29,05,12,0.30
2015,08,29,05,13,0.50
2015,08,29,05,14,0.30
2015,08,29,05,15,0.40
2015,08,29,05,16,1.00
2015,08,29,05,17,0.00
2015,08,29,05,18,0.60
2015,08,29,05,19,0.30
2015,08,29,05,20,0.90
2015,08,29,05,21,0.20
2015,08,29,05,22,0.00
2015,08,29,05,23,0.70
2015,08,29,05,24,1.20
2015,08,29,05,25,1.00
2015,08,29,05,26,2.50
2015,08,29,05,27,1.30
2015,08,29,05,28,1.90
2015,08,29,05,29,3.50
2015,08,29,05,30,0.90
2015,08,29,05,31,1.80
2015,08,29,05,32,1.20
2015,08,29,05,33,0.70
2015,08,29,05,34,0.30
2015,08,29,05,35,1.40
2015,08,29,05,36,2.90
2015,08,29,05,37,2.30
2015,08,29,05,38,1.40
2015,08,29,05,39,0.30
2015,08,29,05,40,1.40
2015,08,29,05,41,0.50
2015,08,29,05,42,1.00
2015,08,29,05,43,0.60
2015,08,29,05,44,0.10
2015,08,29,05,45,0.00
2015,08,29,05,46,0.00
2015,08,29,05,47,0.50
2015,08,29,05,48,0.00
2015,08,29,05,49,0.10
2015,08,29,05,50,2.10
2015,08,29,05,51,6.30
2015,08,29,05,52,8.70
2015,08,29,05,53,8.20
2015,08,29,05,54,6.80
2015,08,29,05,55,10.00
2015,08,29,05,56,12.30
2015,08,29,05,57,13.80
2015,08,29,05,58,8.60
2015,08,29,05,59,7.90
2015,08,29,06,00,3.40
2015,08,29,06,01,1.00
2015,08,29,06,02,0.70
2015,08,29,06,03,2.50
2015,08,29,06,04,1.70
2015,08,29,06,05,0.20
2015,08,29,06,06,0.00
2015,08,29,06,07,0.00
2015,08,29,06,08,0.00
2015,08,29,06,09,0.60
2015,08,29,06,10,1.30
2015,08,29,06,11,2.30
2015,08,29,06,12,3.40
2015,08,29,06,13,3.50
2015,08,29,06,14,3.90
2015,08,29,06,15,1.50
2015,08,29,06,16,1.40
2015,08,29,06,17,0.80
2015,08,29,06,18,1.50
2015,08,29,06,19,1.10
2015,08,29,06,20,0.20
2015,08,29,06,21,0.40
2015,08,29,06,22,1.60
2015,08,29,06,23,0.50
2015,08,29,06,24,0.50
2015,08,29,06,25,1.00
2015,08,29,06,26,0.10
2015,08,29,06,27,0.30
2015,08,29,06,28,1.00
2015,08,29,06,29,0.00
2015,08,29,06,30,0.00
2015,08,29,06,31,0.30
2015,08,29,06,32,0.90
2015,08,29,06,33,0.90
2015,08,29,06,34,0.10
2015,08,29,06,35,0.00
2015,08,29,06,36,0.00
2015,08,29,06,37,0.20
2015,08,29,06,38,0.40
2015,08,29,06,39,1.60
2015,08,29,06,40,1.40
2015,08,29,06,41,0.20
2015,08,29,06,42,0.00
2015,08,29,06,43,0.00
2015,08,29,06,44,0.40
2015,08,29,06,45,1.90
2015,08,29,06,46,3.90
2015,08,29,06,47,2.60
2015,08,29,06,48,5.70
2015,08,29,06,49,5.40
2015,08,29,06,50,10.40
2015,08,29,06,51,8.60
2015,08,29,06,52,9.10
2015,08,29,06,53,3.60
2015,08,29,06,54,7.60
2015,08,29,06,55,12.40
2015,08,29,06,56,12.80
2015,08,29,06,57,8.10
2015,08,29,06,58,15.30
2015,08,29,06,59,12.00
2015,08,29,07,00,10.30
2015,08,29,07,01,7.60
2015,08,29,07,02,8.80
2015,08,29,07,03,7.30
2015,08,29,07,04,7.70
2015,08,29,07,05,6.00
2015,08,29,07,06,7.50
2015,08,29,07,07,10.80
2015,08,29,07,08,12.40
2015,08,29,07,09,3.70
2015,08,29,07,10,8.00
2015,08,29,07,11,10.70
2015,08,29,07,12,13.00
2015,08,29,07,13,9.70
2015,08,29,07,14,10.90
2015,08,29,07,15,9.90
2015,08,29,07,16,6.80
2015,08,29,07,17,5.50
2015,08,29,07,18,8.60
2015,08,29,07,19,16.10
2015,08,29,07,20,7.00
2015,08,29,07,21,3.50
2015,08,29,07,22,13.60
2015,08,29,07,23,13.50
2015,08,29,07,24,20.60
2015,08,29,07,25,10.30
2015,08,29,07,26,9.70
2015,08,29,07,27,13.00
2015,08,29,07,28,14.80
2015,08,29,07,29,12.90
2015,08,29,07,30,10.30
2015,08,29,07,31,8.90
2015,08,29,07,32,14.90
2015,08,29,07,33,11.20
2015,08,29,07,34,10.00
2015,08,29,07,35,6.40
2015,08,29,07,36,10.40
2015,08,29,07,37,5.20
2015,08,29,07,38,3.40
2015,08,29,07,39,4.10
2015,08,29,07,40,5.70
2015,08,29,07,41,3.30
2015,08,29,07,42,8.60
2015,08,29,07,43,5.30
2015,08,29,07,44,5.80
2015,08,29,07,45,1.60
2015,08,29,07,46,3.90
2015,08,29,07,47,4.70
2015,08,29,07,48,4.50
2015,08,29,07,49,1.60
2015,08,29,07,50,1.60
2015,08,29,07,51,2.70
2015,08,29,07,52,3.30
2015,08,29,07,53,5.30
2015,08,29,07,54,2.40
2015,08,29,07,55,5.80
2015,08,29,07,56,6.20
2015,08,29,07,57,4.30
2015,08,29,07,58,3.60
2015,08,29,07,59,3.50
2015,08,29,08,00,2.80
2015,08,29,08,01,1.20
2015,08,29,08,02,5.00
2015,08,29,08,03,5.80
2015,08,29,08,04,4.50
2015,08,29,08,05,2.90
2015,08,29,08,06,3.80
2015,08,29,08,07,4.20
2015,08,29,08,08,3.00
2015,08,29,08,09,1.40
2015,08,29,08,10,2.20
2015,08,29,08,11,2.00
2015,08,29,08,12,1.50
2015,08,29,08,13,2.50
2015,08,29,08,14,1.60
2015,08,29,08,15,0.30
2015,08,29,08,16,0.10
2015,08,29,08,17,0.10
2015,08,29,08,18,0.90
2015,08,29,08,19,1.80
2015,08,29,08,20,0.90
2015,08,29,08,21,0.60
2015,08,29,08,22,1.50
2015,08,29,08,23,1.40
2015,08,29,08,24,3.70
2015,08,29,08,25,6.40
2015,08,29,08,26,3.50
2015,08,29,08,27,1.40
2015,08,29,08,28,5.60
2015,08,29,08,29,5.90
2015,08,29,08,30,2.10
2015,08,29,08,31,2.10
2015,08,29,08,32,5.70
2015,08,29,08,33,1.40
2015,08,29,08,34,3.20
2015,08,29,08,35,1.40
2015,08,29,08,36,2.70
2015,08,29,08,37,6.10
2015,08,29,08,38,4.30
2015,08,29,08,39,0.80
2015,08,29,08,40,1.90
2015,08,29,08,41,4.40
2015,08,29,08,42,0.60
2015,08,29,08,43,5.40
2015,08,29,08,44,6.30
2015,08,29,08,45,6.60
2015,08,29,08,46,4.30
2015,08,29,08,47,5.80
2015,08,29,08,48,2.30
2015,08,29,08,49,3.90
2015,08,29,08,50,1.70
2015,08,29,08,51,6.80
2015,08,29,08,52,5.30
2015,08,29,08,53,2.30
2015,08,29,08,54,0.20
2015,08,29,08,55,3.50
2015,08,29,08,56,1.10
2015,08,29,08,57,3.80
2015,08,29,08,58,0.70
2015,08,29,08,59,0.10
2015,08,29,09,00,0.70
2015,08,29,09,01,1.50
2015,08,29,09,02,5.50
2015,08,29,09,03,1.50
2015,08,29,09,04,0.50
2015,08,29,09,05,2.50
2015,08,29,09,06,1.00
2015,08,29,09,07,1.40
2015,08,29,09,08,2.10
2015,08,29,09,09,0.80
2015,08,29,09,10,0.80
2015,08,29,09,11,4.00
2015,08,29,09,12,1.60
2015,08,29,09,13,0.20
2015,08,29,09,14,0.00
2015,08,29,09,15,0.40
2015,08,29,09,16,0.50
2015,08,29,09,17,1.70
2015,08,29,09,18,0.90
2015,08,29,09,19,1.00
2015,08,29,09,20,1.40
2015,08,29,09,21,3.80
2015,08,29,09,22,6.30
2015,08,29,09,23,4.90
2015,08,29,09,24,5.10
2015,08,29,09,25,5.10
2015,08,29,09,26,4.30
2015,08,29,09,27,6.70
2015,08,29,09,28,2.20
2015,08,29,09,29,3.10
2015,08,29,09,30,4.30
2015,08,29,09,31,4.80
2015,08,29,09,32,4.50
2015,08,29,09,33,4.10
2015,08,29,09,34,0.30
2015,08,29,09,35,0.60
2015,08,29,09,36,0.60
2015,08,29,09,37,0.30
2015,08,29,09,38,3.00
2015,08,29,09,39,5.40
2015,08,29,09,40,4.50
2015,08,29,09,41,3.10
2015,08,29,09,42,6.90
2015,08,29,09,43,4.90
2015,08,29,09,44,6.30
2015,08,29,09,45,3.90
2015,08,29,09,46,5.10
2015,08,29,09,47,8.10
2015,08,29,09,48,3.10
2015,08,29,09,49,9.70
2015,08,29,09,50,10.90
2015,08,29,09,51,6.80
2015,08,29,09,52,3.80
2015,08,29,09,53,7.50
2015,08,29,09,54,7.00
2015,08,29,09,55,5.30
2015,08,29,09,56,8.00
2015,08,29,09,57,6.50
2015,08,29,09,58,7.60
2015,08,29,09,59,2.80
2015,08,29,10,00,3.50
2015,08,29,10,01,2.90
2015,08,29,10,02,1.30
2015,08,29,10,03,4.20
2015,08,29,10,04,5.60
2015,08,29,10,05,1.00
2015,08,29,10,06,2.70
2015,08,29,10,07,3.30
2015,08,29,10,08,5.40
2015,08,29,10,09,5.70
2015,08,29,10,10,4.10
2015,08,29,10,11,3.50
2015,08,29,10,12,1.70
2015,08,29,10,13,8.10
2015,08,29,10,14,9.70
2015,08,29,10,15,10.50
2015,08,29,10,16,7.50
2015,08,29,10,17,6.40
2015,08,29,10,18,6.60
2015,08,29,10,19,2.70
2015,08,29,10,20,0.30
2015,08,29,10,21,1.10
2015,08,29,10,22,1.70
2015,08,29,10,23,2.40
2015,08,29,10,24,2.70
2015,08,29,10,25,7.30
2015,08,29,10,26,7.10
2015,08,29,10,27,13.70
2015,08,29,10,28,4.90
2015,08,29,10,29,7.50
2015,08,29,10,30,3.60
2015,08,29,10,31,5.30
2015,08,29,10,32,3.70
2015,08,29,10,33,7.70
2015,08,29,10,34,14.40
2015,08,29,10,35,8.80
2015,08,29,10,36,3.00
2015,08,29,10,37,3.20
2015,08,29,10,38,4.60
2015,08,29,10,39,7.80
2015,08,29,10,40,4.70
2015,08,29,10,41,4.80
2015,08,29,10,42,6.60
2015,08,29,10,43,8.00
2015,08,29,10,44,5.70
2015,08,29,10,45,5.50
2015,08,29,10,46,6.10
2015,08,29,10,47,5.50
2015,08,29,10,48,6.80
2015,08,29,10,49,4.40
2015,08,29,10,50,4.70
2015,08,29,10,51,11.80
2015,08,29,10,52,7.50
2015,08,29,10,53,5.80
2015,08,29,10,54,5.30
2015,08,29,10,55,7.10
2015,08,29,10,56,5.50
2015,08,29,10,57,3.80
2015,08,29,10,58,5.50
2015,08,29,10,59,1.20
2015,08,29,11,00,7.10
2015,08,29,11,01,8.20
2015,08,29,11,02,7.50
2015,08,29,11,03,9.70
2015,08,29,11,04,6.90
2015,08,29,11,05,6.10
2015,08,29,11,06,5.80
2015,08,29,11,07,6.10
2015,08,29,11,08,6.40
2015,08,29,11,09,9.20
2015,08,29,11,10,11.50
2015,08,29,11,11,9.70
2015,08,29,11,12,6.80
2015,08,29,11,13,8.60
2015,08,29,11,14,11.00
2015,08,29,11,15,11.90
2015,08,29,11,16,5.90
2015,08,29,11,17,5.70
2015,08,29,11,18,11.30
2015,08,29,11,19,4.80
2015,08,29,11,20,12.50
2015,08,29,11,21,12.70
2015,08,29,11,22,8.90
2015,08,29,11,23,9.80
2015,08,29,11,24,9.70
2015,08,29,11,25,12.80
2015,08,29,11,26,8.50
2015,08,29,11,27,8.60
2015,08,29,11,28,13.10
2015,08,29,11,29,8.60
2015,08,29,11,30,14.40
2015,08,29,11,31,12.00
2015,08,29,11,32,4.30
2015,08,29,11,33,9.10
2015,08,29,11,34,5.50
2015,08,29,11,35,7.70
2015,08,29,11,36,11.30
2015,08,29,11,37,11.90
2015,08,29,11,38,7.90
2015,08,29,11,39,15.80
2015,08,29,11,40,21.60
2015,08,29,11,41,14.40
2015,08,29,11,42,6.20
2015,08,29,11,43,13.00
2015,08,29,11,44,9.50
2015,08,29,11,45,9.90
2015,08,29,11,46,11.40
2015,08,29,11,47,11.30
2015,08,29,11,48,4.60
2015,08,29,11,49,7.20
2015,08,29,11,50,3.60
2015,08,29,11,51,10.90
2015,08,29,11,52,6.00
2015,08,29,11,53,2.50
2015,08,29,11,54,4.50
2015,08,29,11,55,6.70
2015,08,29,11,56,10.10
2015,08,29,11,57,8.90
2015,08,29,11,58,5.70
2015,08,29,11,59,4.10
2015,08,29,12,00,5.70
2015,08,29,12,01,11.40
2015,08,29,12,02,5.60
2015,08,29,12,03,5.00
2015,08,29,12,04,5.30
2015,08,29,12,05,7.30
2015,08,29,12,06,10.60
2015,08,29,12,07,13.10
2015,08,29,12,08,13.50
2015,08,29,12,09,10.30
2015,08,29,12,10,10.50
2015,08,29,12,11,6.00
2015,08,29,12,12,2.00
2015,08,29,12,13,11.00
2015,08,29,12,14,9.90
2015,08,29,12,15,6.40
2015,08,29,12,16,4.20
2015,08,29,12,17,4.50
2015,08,29,12,18,2.50
2015,08,29,12,19,5.30
2015,08,29,12,20,4.50
2015,08,29,12,21,5.80
2015,08,29,12,22,6.00
2015,08,29,12,23,4.40
2015,08,29,12,24,3.40
2015,08,29,12,25,1.30
2015,08,29,12,26,5.20
2015,08,29,12,27,5.70
2015,08,29,12,28,6.80
2015,08,29,12,29,5.60
2015,08,29,12,30,10.00
2015,08,29,12,31,6.20
2015,08,29,12,32,7.30
2015,08,29,12,33,5.10
2015,08,29,12,34,12.20
2015,08,29,12,35,3.30
2015,08,29,12,36,3.00
2015,08,29,12,37,4.70
2015,08,29,12,38,5.20
2015,08,29,12,39,5.10
2015,08,29,12,40,8.50
2015,08,29,12,41,3.60
2015,08,29,12,42,11.70
2015,08,29,12,43,10.70
2015,08,29,12,44,7.50
2015,08,29,12,45,4.80
2015,08,29,12,46,3.40
2015,08,29,12,47,4.20
2015,08,29,12,48,3.90
2015,08,29,12,49,2.00
2015,08,29,12,50,4.90
2015,08,29,12,51,3.50
2015,08,29,12,52,3.70
2015,08,29,12,53,4.30
2015,08,29,12,54,7.00
2015,08,29,12,55,4.70
2015,08,29,12,56,13.60
2015,08,29,12,57,12.40
2015,08,29,12,58,5.70
2015,08,29,12,59,6.60
2015,08,29,13,00,4.60
2015,08,29,13,01,7.90
2015,08,29,13,02,3.80
2015,08,29,13,03,3.90
2015,08,29,13,04,4.50
2015,08,29,13,05,7.20
2015,08,29,13,06,7.80
2015,08,29,13,07,7.10
2015,08,29,13,08,4.90
2015,08,29,13,09,1.40
2015,08,29,13,10,1.20
2015,08,29,13,11,1.70
2015,08,29,13,12,5.40
2015,08,29,13,13,3.50
2015,08,29,13,14,4.90
2015,08,29,13,15,2.90
2015,08,29,13,16,1.30
2015,08,29,13,17,3.80
2015,08,29,13,18,4.40
2015,08,29,13,19,3.50
2015,08,29,13,20,3.20
2015,08,29,13,21,4.30
2015,08,29,13,22,2.90
2015,08,29,13,23,5.70
2015,08,29,13,24,10.40
2015,08,29,13,25,2.50
2015,08,29,13,26,4.70
2015,08,29,13,27,4.10
2015,08,29,13,28,3.20
2015,08,29,13,29,6.30
2015,08,29,13,30,6.20
2015,08,29,13,31,3.30
2015,08,29,13,32,3.80
2015,08,29,13,33,13.60
2015,08,29,13,34,5.90
2015,08,29,13,35,5.50
2015,08,29,13,36,2.70
2015,08,29,13,37,4.00
2015,08,29,13,38,3.70
2015,08,29,13,39,9.10
2015,08,29,13,40,5.50
2015,08,29,13,41,8.70
2015,08,29,13,42,7.70
2015,08,29,13,43,6.80
2015,08,29,13,44,6.50
2015,08,29,13,45,5.60
2015,08,29,13,46,4.60
2015,08,29,13,47,10.80
2015,08,29,13,48,17.80
2015,08,29,13,49,11.00
2015,08,29,13,50,7.30
2015,08,29,13,51,7.00
2015,08,29,13,52,20.80
2015,08,29,13,53,16.00
2015,08,29,13,54,16.90
2015,08,29,13,55,12.80
2015,08,29,13,56,16.20
2015,08,29,13,57,22.10
2015,08,29,13,58,29.60
2015,08,29,13,59,9.00
2015,08,29,14,00,15.50
2015,08,29,14,01,13.00
2015,08,29,14,02,9.90
2015,08,29,14,03,23.10
2015,08,29,14,04,19.80
2015,08,29,14,05,18.20
2015,08,29,14,06,14.00
2015,08,29,20,22,0.00
2015,08,29,20,23,0.00
2015,08,29,20,24,0.00
2015,08,29,20,25,0.00
2015,08,29,20,26,0.00
2015,08,29,20,27,0.00
2015,08,29,20,28,0.00
2015,08,29,20,29,0.00
2015,08,29,20,30,0.00
2015,08,29,20,31,0.00
2015,08,29,20,32,0.00
2015,08,29,20,33,0.00
2015,08,29,20,34,0.00
2015,08,29,20,35,0.10
2015,08,29,20,36,0.30
2015,08,29,20,37,0.30
2015,08,29,20,38,0.20
2015,08,29,20,39,0.10
2015,08,29,20,40,0.00
2015,08,29,20,41,0.60
2015,08,29,20,42,1.50
2015,08,29,20,43,0.20
2015,08,29,20,44,0.00
2015,08,29,20,45,0.10
2015,08,29,20,46,0.00
2015,08,29,20,47,0.20
2015,08,29,20,48,1.30
2015,08,29,20,49,2.10
2015,08,29,20,50,0.20
2015,08,29,20,51,0.00
2015,08,29,20,52,0.20
2015,08,29,20,53,0.00
2015,08,29,20,54,0.00
2015,08,29,20,55,0.00
2015,08,29,20,56,0.00
2015,08,29,20,57,0.00
2015,08,29,20,58,0.00
2015,08,29,20,59,0.40
2015,08,29,21,00,0.00
2015,08,29,21,01,0.10
2015,08,29,21,02,0.00
2015,08,29,21,03,0.00
2015,08,29,21,04,0.00
2015,08,29,21,05,0.00
2015,08,29,21,06,0.00
2015,08,29,21,07,0.50
2015,08,29,21,08,1.30
2015,08,29,21,09,0.90
2015,08,29,21,10,0.00
2015,08,29,21,11,1.10
2015,08,29,21,12,1.40
2015,08,29,21,13,1.10
2015,08,29,21,14,0.00
2015,08,29,21,15,0.00
2015,08,29,21,16,0.10
2015,08,29,21,17,0.20
2015,08,29,21,18,0.00
2015,08,29,21,19,0.00
2015,08,29,21,20,0.40
2015,08,29,21,21,0.00
2015,08,29,21,22,0.00
2015,08,29,21,23,0.00
2015,08,29,21,24,0.00
2015,08,29,21,25,0.20
2015,08,29,21,26,0.00
2015,08,29,21,27,0.00
2015,08,29,21,28,0.00
2015,08,29,21,29,1.10
2015,08,29,21,30,0.20
2015,08,29,21,31,0.00
2015,08,29,21,32,0.00
2015,08,29,21,33,0.00
2015,08,29,21,34,0.00
2015,08,29,21,35,0.00
2015,08,29,21,36,0.00
2015,08,29,21,37,0.00
2015,08,29,21,38,0.00
2015,08,29,21,39,0.00
2015,08,29,21,40,0.00
2015,08,29,21,41,0.00
2015,08,29,21,42,0.00
2015,08,29,21,43,0.30
2015,08,29,21,44,0.30
2015,08,29,21,45,0.00
2015,08,29,21,46,0.00
2015,08,29,21,47,0.00
2015,08,29,21,48,0.00
2015,08,29,21,49,0.20
2015,08,29,21,50,0.10
2015,08,29,21,51,0.00
2015,08,29,21,52,0.00
2015,08,29,21,53,0.00
2015,08,29,21,54,0.00
2015,08,29,21,55,0.00
2015,08,29,21,56,0.00
2015,08,29,21,57,0.00
2015,08,29,21,58,0.10
2015,08,29,21,59,0.50
2015,08,29,22,00,0.00
2015,08,29,22,01,0.60
2015,08,29,22,02,0.10
2015,08,29,22,03,0.00
2015,08,29,22,04,0.00
2015,08,29,22,05,0.00
2015,08,29,22,06,0.00
2015,08,29,22,07,0.00
2015,08,29,22,08,0.00
2015,08,29,22,09,0.00
2015,08,29,22,10,0.00
2015,08,29,22,11,0.00
2015,08,29,22,12,0.00
2015,08,29,22,13,0.00
2015,08,29,22,14,0.00
2015,08,29,22,15,0.00
2015,08,29,22,16,0.00
2015,08,29,22,17,0.00
2015,08,29,22,18,0.00
2015,08,29,22,19,0.00
2015,08,29,22,20,0.00
2015,08,29,22,21,0.00
2015,08,29,22,22,0.00
2015,08,29,22,23,0.00
2015,08,29,22,24,0.00
2015,08,29,22,25,0.00
2015,08,29,22,26,0.00
2015,08,29,22,27,0.00
2015,08,29,22,28,0.00
2015,08,29,22,29,0.00
2015,08,29,22,30,0.10
2015,08,29,22,31,0.40
2015,08,29,22,32,0.40
2015,08,29,22,33,0.30
2015,08,29,22,34,0.00
2015,08,29,22,35,0.00
2015,08,29,22,36,0.00
2015,08,29,22,37,0.00
2015,08,29,22,38,0.00
2015,08,29,22,39,0.00
2015,08,29,22,40,0.00
2015,08,29,22,41,0.00
2015,08,29,22,42,0.00
2015,08,29,22,43,0.00
2015,08,29,22,44,0.00
2015,08,29,22,45,0.00
2015,08,29,22,46,0.00
2015,08,29,22,47,0.00
2015,08,29,22,48,0.00
2015,08,29,22,49,0.00
2015,08,29,22,50,0.00
2015,08,29,22,51,0.00
2015,08,29,22,52,0.00
2015,08,29,22,53,0.00
2015,08,29,22,54,0.00
2015,08,29,22,55,0.00
2015,08,29,22,56,0.00
2015,08,29,22,57,0.00
2015,08,29,22,58,0.00
2015,08,29,22,59,0.00
2015,08,29,23,00,0.00
2015,08,29,23,01,0.00
2015,08,29,23,02,0.00
2015,08,29,23,03,0.00
2015,08,29,23,04,0.00
2015,08,29,23,05,0.00
2015,08,29,23,06,0.00
2015,08,29,23,07,0.00
2015,08,29,23,08,0.00
2015,08,29,23,09,0.00
2015,08,29,23,10,0.00
2015,08,29,23,11,0.00
2015,08,29,23,12,0.00
2015,08,29,23,13,0.00
2015,08,29,23,14,0.00
2015,08,29,23,15,0.40
2015,08,29,23,16,1.80
2015,08,29,23,17,1.20
2015,08,29,23,18,0.50
2015,08,29,23,19,0.20
2015,08,29,23,20,0.00
2015,08,29,23,21,0.00
2015,08,29,23,22,0.00
2015,08,29,23,23,0.00
2015,08,29,23,24,0.00
2015,08,29,23,25,0.00
2015,08,29,23,26,0.00
2015,08,29,23,27,0.00
2015,08,29,23,28,0.00
2015,08,29,23,29,0.00
2015,08,29,23,30,0.10
2015,08,29,23,31,0.20
2015,08,29,23,32,0.00
2015,08,29,23,33,0.00
2015,08,29,23,34,0.10
2015,08,29,23,35,0.10
2015,08,29,23,36,0.00
2015,08,29,23,37,0.00
2015,08,29,23,38,0.00
2015,08,29,23,39,0.00
2015,08,29,23,40,0.00
2015,08,29,23,41,0.00
2015,08,29,23,42,0.00
2015,08,29,23,43,0.00
2015,08,29,23,44,0.00
2015,08,29,23,45,0.00
2015,08,29,23,46,0.00
2015,08,29,23,47,0.00
2015,08,29,23,48,0.00
2015,08,29,23,49,0.00
2015,08,29,23,50,0.00
2015,08,29,23,51,0.00
2015,08,29,23,52,0.00
2015,08,29,23,53,0.00
2015,08,29,23,54,0.00
2015,08,29,23,55,0.00
2015,08,29,23,56,0.00
2015,08,29,23,57,0.10
2015,08,29,23,58,0.00
2015,08,29,23,59,0.00
